owner,sensor,date,latitude,longitude,vertical_datum,sea_water_temperature,qcFlag 
NERRS,ioos:station:NOAA.NERRS:gndbhwq:1,2016-10-07T16:45:00Z,30.4178,-88.4054,0.0,27.8,2 
NERRS,ioos:station:NOAA.NERRS:gndbhwq:1,2016-10-07T17:45:00Z,30.4178,-88.4054,0.0,28.1,2 
NERRS,ioos:station:NOAA.NERRS:gndbhwq:1,2016-10-07T18:45:00Z,30.4178,-88.4054,0.0,28.6,2 
NERRS,ioos:station:NOAA.NERRS:gndbhwq:1,2016-10-07T19:45:00Z,30.4178,-88.4054,0.0,29.0,2 
NERRS,ioos:station:NOAA.NERRS:gndbhwq:1,2016-10-07T20:45:00Z,30.4178,-88.4054,0.0,29.0,2 
NERRS,ioos:station:NOAA.NERRS:gndbhwq:1,2016-10-07T21:45:00Z,30.4178,-88.4054,0.0,28.9,2 
NERRS,ioos:station:NOAA.NERRS:gndbhwq:1,2016-10-07T22:45:00Z,30.4178,-88.4054,0.0,28.7,2 
NERRS,ioos:station:NOAA.NERRS:gndbhwq:1,2016-10-07T23:45:00Z,30.4178,-88.4054,0.0,28.3,2 
NERRS,ioos:station:NOAA.NERRS:gndbhwq:1,2016-10-08T00:45:00Z,30.4178,-88.4054,0.0,28.4,2 
NERRS,ioos:station:NOAA.NERRS:gndbhwq:1,2016-10-08T01:45:00Z,30.4178,-88.4054,0.0,28.1,2 
NERRS,ioos:station:NOAA.NERRS:gndbhwq:1,2016-10-08T02:45:00Z,30.4178,-88.4054,0.0,28.0,2 
NERRS,ioos:station:NOAA.NERRS:gndbhwq:1,2016-10-08T03:45:00Z,30.4178,-88.4054,0.0,27.8,2 
NERRS,ioos:station:NOAA.NERRS:gndbhwq:1,2016-10-08T04:45:00Z,30.4178,-88.4054,0.0,27.7,2 
NERRS,ioos:station:NOAA.NERRS:gndbhwq:1,2016-10-08T05:45:00Z,30.4178,-88.4054,0.0,27.6,2 
NERRS,ioos:station:NOAA.NERRS:gndbhwq:1,2016-10-08T06:45:00Z,30.4178,-88.4054,0.0,27.6,2 
NERRS,ioos:station:NOAA.NERRS:gndbhwq:1,2016-10-08T07:45:00Z,30.4178,-88.4054,0.0,27.5,2 
NERRS,ioos:station:NOAA.NERRS:gndbhwq:1,2016-10-08T08:45:00Z,30.4178,-88.4054,0.0,27.5,2 
NERRS,ioos:station:NOAA.NERRS:gndbhwq:1,2016-10-08T09:45:00Z,30.4178,-88.4054,0.0,27.4,2 
NERRS,ioos:station:NOAA.NERRS:gndbhwq:1,2016-10-08T10:45:00Z,30.4178,-88.4054,0.0,27.5,2 
NERRS,ioos:station:NOAA.NERRS:gndbhwq:1,2016-10-08T11:45:00Z,30.4178,-88.4054,0.0,27.5,2 
NERRS,ioos:station:NOAA.NERRS:gndbhwq:1,2016-10-08T12:45:00Z,30.4178,-88.4054,0.0,27.2,2 
NERRS,ioos:station:NOAA.NERRS:gndbhwq:1,2016-10-08T13:45:00Z,30.4178,-88.4054,0.0,27.2,2 
NERRS,ioos:station:NOAA.NERRS:gndbhwq:1,2016-10-08T14:45:00Z,30.4178,-88.4054,0.0,27.2,2 
NERRS,ioos:station:NOAA.NERRS:gndbhwq:1,2016-10-08T15:45:00Z,30.4178,-88.4054,0.0,27.3,2 
NERRS,ioos:station:NOAA.NERRS:gndbhwq:1,2016-10-08T16:45:00Z,30.4178,-88.4054,0.0,27.8,2 
NERRS,ioos:station:NOAA.NERRS:gndbhwq:1,2016-10-08T17:45:00Z,30.4178,-88.4054,0.0,28.1,2 
NERRS,ioos:station:NOAA.NERRS:gndbhwq:1,2016-10-08T18:45:00Z,30.4178,-88.4054,0.0,28.3,2 
NERRS,ioos:station:NOAA.NERRS:gndbhwq:1,2016-10-08T19:45:00Z,30.4178,-88.4054,0.0,28.5,2 
NERRS,ioos:station:NOAA.NERRS:gndbhwq:1,2016-10-08T20:45:00Z,30.4178,-88.4054,0.0,28.5,2 
NERRS,ioos:station:NOAA.NERRS:gndbhwq:1,2016-10-08T21:45:00Z,30.4178,-88.4054,0.0,28.5,2 
NERRS,ioos:station:NOAA.NERRS:gndbhwq:1,2016-10-08T22:45:00Z,30.4178,-88.4054,0.0,28.4,2 
NERRS,ioos:station:NOAA.NERRS:gndbhwq:1,2016-10-08T23:45:00Z,30.4178,-88.4054,0.0,28.3,2 
NERRS,ioos:station:NOAA.NERRS:gndbhwq:1,2016-10-09T00:45:00Z,30.4178,-88.4054,0.0,28.2,2 
NERRS,ioos:station:NOAA.NERRS:gndbhwq:1,2016-10-09T01:45:00Z,30.4178,-88.4054,0.0,28.0,2 
NERRS,ioos:station:NOAA.NERRS:gndbhwq:1,2016-10-09T02:45:00Z,30.4178,-88.4054,0.0,27.9,2 
NERRS,ioos:station:NOAA.NERRS:gndbhwq:1,2016-10-09T03:45:00Z,30.4178,-88.4054,0.0,27.8,2 
NERRS,ioos:station:NOAA.NERRS:gndbhwq:1,2016-10-09T04:45:00Z,30.4178,-88.4054,0.0,27.6,2 
NERRS,ioos:station:NOAA.NERRS:gndbhwq:1,2016-10-09T05:45:00Z,30.4178,-88.4054,0.0,27.4,2 
NERRS,ioos:station:NOAA.NERRS:gndbhwq:1,2016-10-09T06:45:00Z,30.4178,-88.4054,0.0,27.1,2 
NERRS,ioos:station:NOAA.NERRS:gndbhwq:1,2016-10-09T07:45:00Z,30.4178,-88.4054,0.0,26.9,2 
NERRS,ioos:station:NOAA.NERRS:gndbhwq:1,2016-10-09T08:45:00Z,30.4178,-88.4054,0.0,26.3,2 
NERRS,ioos:station:NOAA.NERRS:gndbhwq:1,2016-10-09T09:45:00Z,30.4178,-88.4054,0.0,26.1,2 
NERRS,ioos:station:NOAA.NERRS:gndbhwq:1,2016-10-09T10:45:00Z,30.4178,-88.4054,0.0,26.1,2 
NERRS,ioos:station:NOAA.NERRS:gndbhwq:1,2016-10-09T11:45:00Z,30.4178,-88.4054,0.0,25.9,2 
NERRS,ioos:station:NOAA.NERRS:gndbhwq:1,2016-10-09T12:45:00Z,30.4178,-88.4054,0.0,25.8,2 
NERRS,ioos:station:NOAA.NERRS:gndbhwq:1,2016-10-09T13:45:00Z,30.4178,-88.4054,0.0,26.0,2 
NERRS,ioos:station:NOAA.NERRS:gndbhwq:1,2016-10-09T14:45:00Z,30.4178,-88.4054,0.0,26.1,2 
NERRS,ioos:station:NOAA.NERRS:gndbhwq:1,2016-10-09T15:45:00Z,30.4178,-88.4054,0.0,26.4,2 
NERRS,ioos:station:NOAA.NERRS:gndbhwq:1,2016-10-09T16:45:00Z,30.4178,-88.4054,0.0,26.6,2 
NERRS,ioos:station:NOAA.NERRS:gndbhwq:1,2016-10-09T17:45:00Z,30.4178,-88.4054,0.0,27.0,2 
NERRS,ioos:station:NOAA.NERRS:gndbhwq:1,2016-10-09T18:45:00Z,30.4178,-88.4054,0.0,27.4,2 
NERRS,ioos:station:NOAA.NERRS:gndbhwq:1,2016-10-09T19:45:00Z,30.4178,-88.4054,0.0,27.4,2 
NERRS,ioos:station:NOAA.NERRS:gndbhwq:1,2016-10-09T20:45:00Z,30.4178,-88.4054,0.0,27.4,2 
NERRS,ioos:station:NOAA.NERRS:gndbhwq:1,2016-10-09T21:45:00Z,30.4178,-88.4054,0.0,27.2,2 
NERRS,ioos:station:NOAA.NERRS:gndbhwq:1,2016-10-09T22:45:00Z,30.4178,-88.4054,0.0,27.2,2 
NERRS,ioos:station:NOAA.NERRS:gndbhwq:1,2016-10-09T23:45:00Z,30.4178,-88.4054,0.0,27.1,2 
NERRS,ioos:station:NOAA.NERRS:gndbhwq:1,2016-10-10T00:45:00Z,30.4178,-88.4054,0.0,27.0,2 
NERRS,ioos:station:NOAA.NERRS:gndbhwq:1,2016-10-10T01:45:00Z,30.4178,-88.4054,0.0,26.9,2 
NERRS,ioos:station:NOAA.NERRS:gndbhwq:1,2016-10-10T02:45:00Z,30.4178,-88.4054,0.0,26.7,2 
NERRS,ioos:station:NOAA.NERRS:gndbhwq:1,2016-10-10T03:45:00Z,30.4178,-88.4054,0.0,26.5,2 
NERRS,ioos:station:NOAA.NERRS:gndbhwq:1,2016-10-10T04:45:00Z,30.4178,-88.4054,0.0,26.3,2 
NERRS,ioos:station:NOAA.NERRS:gndbhwq:1,2016-10-10T05:45:00Z,30.4178,-88.4054,0.0,26.2,2 
NERRS,ioos:station:NOAA.NERRS:gndbhwq:1,2016-10-10T06:45:00Z,30.4178,-88.4054,0.0,25.7,2 
NERRS,ioos:station:NOAA.NERRS:gndbhwq:1,2016-10-10T07:45:00Z,30.4178,-88.4054,0.0,25.1,2 
NERRS,ioos:station:NOAA.NERRS:gndbhwq:1,2016-10-10T08:45:00Z,30.4178,-88.4054,0.0,24.9,2 
NERRS,ioos:station:NOAA.NERRS:gndbhwq:1,2016-10-10T09:45:00Z,30.4178,-88.4054,0.0,24.7,2 
NERRS,ioos:station:NOAA.NERRS:gndbhwq:1,2016-10-10T10:45:00Z,30.4178,-88.4054,0.0,24.6,2 
NERRS,ioos:station:NOAA.NERRS:gndbhwq:1,2016-10-10T11:45:00Z,30.4178,-88.4054,0.0,24.4,2 
NERRS,ioos:station:NOAA.NERRS:gndbhwq:1,2016-10-10T12:45:00Z,30.4178,-88.4054,0.0,24.6,2 
NERRS,ioos:station:NOAA.NERRS:gndbhwq:1,2016-10-10T13:45:00Z,30.4178,-88.4054,0.0,24.7,2 
NERRS,ioos:station:NOAA.NERRS:gndbhwq:1,2016-10-10T14:45:00Z,30.4178,-88.4054,0.0,25.0,2 
NERRS,ioos:station:NOAA.NERRS:gndbhwq:1,2016-10-10T15:45:00Z,30.4178,-88.4054,0.0,25.2,2 
NERRS,ioos:station:NOAA.NERRS:gndbhwq:1,2016-10-10T16:45:00Z,30.4178,-88.4054,0.0,25.4,2 
NERRS,ioos:station:NOAA.NERRS:gndbhwq:1,2016-10-10T17:45:00Z,30.4178,-88.4054,0.0,25.8,2 
NERRS,ioos:station:NOAA.NERRS:gndbhwq:1,2016-10-10T18:45:00Z,30.4178,-88.4054,0.0,26.1,2 
NERRS,ioos:station:NOAA.NERRS:gndbhwq:1,2016-10-10T19:45:00Z,30.4178,-88.4054,0.0,26.1,2 
NERRS,ioos:station:NOAA.NERRS:gndbhwq:1,2016-10-10T20:45:00Z,30.4178,-88.4054,0.0,26.2,2 
NERRS,ioos:station:NOAA.NERRS:gndbhwq:1,2016-10-10T21:45:00Z,30.4178,-88.4054,0.0,26.2,2 
NERRS,ioos:station:NOAA.NERRS:gndbhwq:1,2016-10-10T22:45:00Z,30.4178,-88.4054,0.0,26.1,2 
NERRS,ioos:station:NOAA.NERRS:gndbhwq:1,2016-10-10T23:45:00Z,30.4178,-88.4054,0.0,26.0,2 
NERRS,ioos:station:NOAA.NERRS:gndbhwq:1,2016-10-11T00:45:00Z,30.4178,-88.4054,0.0,25.9,2 
NERRS,ioos:station:NOAA.NERRS:gndbhwq:1,2016-10-11T01:45:00Z,30.4178,-88.4054,0.0,25.7,2 
NERRS,ioos:station:NOAA.NERRS:gndbhwq:1,2016-10-11T02:45:00Z,30.4178,-88.4054,0.0,25.7,2 
NERRS,ioos:station:NOAA.NERRS:gndbhwq:1,2016-10-11T03:45:00Z,30.4178,-88.4054,0.0,25.7,2 
NERRS,ioos:station:NOAA.NERRS:gndbhwq:1,2016-10-11T04:45:00Z,30.4178,-88.4054,0.0,25.6,2 
NERRS,ioos:station:NOAA.NERRS:gndbhwq:1,2016-10-11T05:45:00Z,30.4178,-88.4054,0.0,25.5,2 
NERRS,ioos:station:NOAA.NERRS:gndbhwq:1,2016-10-11T06:45:00Z,30.4178,-88.4054,0.0,25.5,2 
NERRS,ioos:station:NOAA.NERRS:gndbhwq:1,2016-10-11T07:45:00Z,30.4178,-88.4054,0.0,25.3,2 
NERRS,ioos:station:NOAA.NERRS:gndbhwq:1,2016-10-11T08:45:00Z,30.4178,-88.4054,0.0,25.2,2 
NERRS,ioos:station:NOAA.NERRS:gndbhwq:1,2016-10-11T09:45:00Z,30.4178,-88.4054,0.0,25.1,2 
NERRS,ioos:station:NOAA.NERRS:gndbhwq:1,2016-10-11T10:45:00Z,30.4178,-88.4054,0.0,24.9,2 
NERRS,ioos:station:NOAA.NERRS:gndbhwq:1,2016-10-11T11:45:00Z,30.4178,-88.4054,0.0,24.8,2 
NERRS,ioos:station:NOAA.NERRS:gndbhwq:1,2016-10-11T12:45:00Z,30.4178,-88.4054,0.0,24.6,2 
NERRS,ioos:station:NOAA.NERRS:gndbhwq:1,2016-10-11T13:45:00Z,30.4178,-88.4054,0.0,24.5,2 
NERRS,ioos:station:NOAA.NERRS:gndbhwq:1,2016-10-11T14:45:00Z,30.4178,-88.4054,0.0,24.7,2 
NERRS,ioos:station:NOAA.NERRS:gndbhwq:1,2016-10-11T15:45:00Z,30.4178,-88.4054,0.0,24.7,2 
NERRS,ioos:station:NOAA.NERRS:gndbhwq:1,2016-10-11T16:45:00Z,30.4178,-88.4054,0.0,24.8,2 
NERRS,ioos:station:NOAA.NERRS:gndbhwq:1,2016-10-11T17:45:00Z,30.4178,-88.4054,0.0,24.9,2 
NERRS,ioos:station:NOAA.NERRS:gndbhwq:1,2016-10-11T18:45:00Z,30.4178,-88.4054,0.0,25.2,2 
NERRS,ioos:station:NOAA.NERRS:gndbhwq:1,2016-10-11T19:45:00Z,30.4178,-88.4054,0.0,25.7,2 
NERRS,ioos:station:NOAA.NERRS:gndbhwq:1,2016-10-11T20:45:00Z,30.4178,-88.4054,0.0,26.0,2 
NERRS,ioos:station:NOAA.NERRS:gndbhwq:1,2016-10-11T21:45:00Z,30.4178,-88.4054,0.0,26.0,2 
NERRS,ioos:station:NOAA.NERRS:gndbhwq:1,2016-10-11T22:45:00Z,30.4178,-88.4054,0.0,25.8,2 
NERRS,ioos:station:NOAA.NERRS:gndbhwq:1,2016-10-11T23:45:00Z,30.4178,-88.4054,0.0,25.7,2 
NERRS,ioos:station:NOAA.NERRS:gndbhwq:1,2016-10-12T00:45:00Z,30.4178,-88.4054,0.0,25.5,2 
NERRS,ioos:station:NOAA.NERRS:gndbhwq:1,2016-10-12T01:45:00Z,30.4178,-88.4054,0.0,25.4,2 
NERRS,ioos:station:NOAA.NERRS:gndbhwq:1,2016-10-12T02:45:00Z,30.4178,-88.4054,0.0,25.3,2 
NERRS,ioos:station:NOAA.NERRS:gndbhwq:1,2016-10-12T03:45:00Z,30.4178,-88.4054,0.0,25.1,2 
NERRS,ioos:station:NOAA.NERRS:gndbhwq:1,2016-10-12T04:45:00Z,30.4178,-88.4054,0.0,25.0,2 
NERRS,ioos:station:NOAA.NERRS:gndbhwq:1,2016-10-12T05:45:00Z,30.4178,-88.4054,0.0,25.0,2 
NERRS,ioos:station:NOAA.NERRS:gndbhwq:1,2016-10-12T06:45:00Z,30.4178,-88.4054,0.0,24.9,2 
NERRS,ioos:station:NOAA.NERRS:gndbhwq:1,2016-10-12T07:45:00Z,30.4178,-88.4054,0.0,24.8,2 
NERRS,ioos:station:NOAA.NERRS:gndbhwq:1,2016-10-12T08:45:00Z,30.4178,-88.4054,0.0,24.8,2 
NERRS,ioos:station:NOAA.NERRS:gndbhwq:1,2016-10-12T09:45:00Z,30.4178,-88.4054,0.0,24.9,2 
NERRS,ioos:station:NOAA.NERRS:gndbhwq:1,2016-10-12T10:45:00Z,30.4178,-88.4054,0.0,25.0,2 
NERRS,ioos:station:NOAA.NERRS:gndbhwq:1,2016-10-12T11:45:00Z,30.4178,-88.4054,0.0,24.9,2 
NERRS,ioos:station:NOAA.NERRS:gndbhwq:1,2016-10-12T12:45:00Z,30.4178,-88.4054,0.0,24.3,2 
NERRS,ioos:station:NOAA.NERRS:gndbhwq:1,2016-10-12T13:45:00Z,30.4178,-88.4054,0.0,24.4,2 
NERRS,ioos:station:NOAA.NERRS:gndbhwq:1,2016-10-12T14:45:00Z,30.4178,-88.4054,0.0,24.4,2 
NERRS,ioos:station:NOAA.NERRS:gndbhwq:1,2016-10-12T15:45:00Z,30.4178,-88.4054,0.0,24.6,2 
NERRS,ioos:station:NOAA.NERRS:gndbhwq:1,2016-10-12T16:45:00Z,30.4178,-88.4054,0.0,24.9,2 
NERRS,ioos:station:NOAA.NERRS:gndbhwq:1,2016-10-12T17:45:00Z,30.4178,-88.4054,0.0,24.9,2 
NERRS,ioos:station:NOAA.NERRS:gndbhwq:1,2016-10-12T18:45:00Z,30.4178,-88.4054,0.0,25.0,2 
NERRS,ioos:station:NOAA.NERRS:gndbhwq:1,2016-10-12T19:45:00Z,30.4178,-88.4054,0.0,25.1,2 
NERRS,ioos:station:NOAA.NERRS:gndbhwq:1,2016-10-12T20:45:00Z,30.4178,-88.4054,0.0,25.0,2 
NERRS,ioos:station:NOAA.NERRS:gndbhwq:1,2016-10-12T22:45:00Z,30.4178,-88.4054,0.0,25.4,2 
NERRS,ioos:station:NOAA.NERRS:gndbhwq:1,2016-10-12T23:45:00Z,30.4178,-88.4054,0.0,25.6,2 
NERRS,ioos:station:NOAA.NERRS:gndbhwq:1,2016-10-13T00:45:00Z,30.4178,-88.4054,0.0,25.7,2 
NERRS,ioos:station:NOAA.NERRS:gndbhwq:1,2016-10-13T01:45:00Z,30.4178,-88.4054,0.0,25.7,2 
NERRS,ioos:station:NOAA.NERRS:gndbhwq:1,2016-10-13T02:45:00Z,30.4178,-88.4054,0.0,25.5,2 
NERRS,ioos:station:NOAA.NERRS:gndbhwq:1,2016-10-13T03:45:00Z,30.4178,-88.4054,0.0,25.6,2 
NERRS,ioos:station:NOAA.NERRS:gndbhwq:1,2016-10-13T04:45:00Z,30.4178,-88.4054,0.0,25.5,2 
NERRS,ioos:station:NOAA.NERRS:gndbhwq:1,2016-10-13T05:45:00Z,30.4178,-88.4054,0.0,25.6,2 
NERRS,ioos:station:NOAA.NERRS:gndbhwq:1,2016-10-13T06:45:00Z,30.4178,-88.4054,0.0,25.5,2 
NERRS,ioos:station:NOAA.NERRS:gndbhwq:1,2016-10-13T07:45:00Z,30.4178,-88.4054,0.0,25.4,2 
NERRS,ioos:station:NOAA.NERRS:gndbhwq:1,2016-10-13T08:45:00Z,30.4178,-88.4054,0.0,25.3,2 
NERRS,ioos:station:NOAA.NERRS:gndbhwq:1,2016-10-13T09:45:00Z,30.4178,-88.4054,0.0,25.3,2 
NERRS,ioos:station:NOAA.NERRS:gndbhwq:1,2016-10-13T10:45:00Z,30.4178,-88.4054,0.0,25.2,2 
NERRS,ioos:station:NOAA.NERRS:gndbhwq:1,2016-10-13T11:45:00Z,30.4178,-88.4054,0.0,24.6,2 
NERRS,ioos:station:NOAA.NERRS:gndbhwq:1,2016-10-13T12:45:00Z,30.4178,-88.4054,0.0,24.5,2 
NERRS,ioos:station:NOAA.NERRS:gndbhwq:1,2016-10-13T13:45:00Z,30.4178,-88.4054,0.0,24.6,2 
NERRS,ioos:station:NOAA.NERRS:gndbhwq:1,2016-10-13T14:45:00Z,30.4178,-88.4054,0.0,24.8,2 
NERRS,ioos:station:NOAA.NERRS:gndbhwq:1,2016-10-13T15:45:00Z,30.4178,-88.4054,0.0,25.1,2 
NERRS,ioos:station:NOAA.NERRS:gndbhwq:1,2016-10-13T16:45:00Z,30.4178,-88.4054,0.0,25.5,2 
NERRS,ioos:station:NOAA.NERRS:gndbhwq:1,2016-10-13T17:45:00Z,30.4178,-88.4054,0.0,25.5,2 
NERRS,ioos:station:NOAA.NERRS:gndbhwq:1,2016-10-13T18:45:00Z,30.4178,-88.4054,0.0,25.6,2 
NERRS,ioos:station:NOAA.NERRS:gndbhwq:1,2016-10-13T19:45:00Z,30.4178,-88.4054,0.0,25.7,2 
NERRS,ioos:station:NOAA.NERRS:gndbhwq:1,2016-10-13T20:45:00Z,30.4178,-88.4054,0.0,25.9,2 
NERRS,ioos:station:NOAA.NERRS:gndbhwq:1,2016-10-13T21:45:00Z,30.4178,-88.4054,0.0,25.8,2 
NERRS,ioos:station:NOAA.NERRS:gndbhwq:1,2016-10-13T22:45:00Z,30.4178,-88.4054,0.0,25.8,2 
NERRS,ioos:station:NOAA.NERRS:gndbhwq:1,2016-10-13T23:45:00Z,30.4178,-88.4054,0.0,25.8,2 
NERRS,ioos:station:NOAA.NERRS:gndbhwq:1,2016-10-14T00:45:00Z,30.4178,-88.4054,0.0,25.8,2 
NERRS,ioos:station:NOAA.NERRS:gndbhwq:1,2016-10-14T01:45:00Z,30.4178,-88.4054,0.0,25.9,2 
NERRS,ioos:station:NOAA.NERRS:gndbhwq:1,2016-10-14T02:45:00Z,30.4178,-88.4054,0.0,26.0,2 
NERRS,ioos:station:NOAA.NERRS:gndbhwq:1,2016-10-14T03:45:00Z,30.4178,-88.4054,0.0,26.0,2 
NERRS,ioos:station:NOAA.NERRS:gndbhwq:1,2016-10-14T04:45:00Z,30.4178,-88.4054,0.0,26.0,2 
NERRS,ioos:station:NOAA.NERRS:gndbhwq:1,2016-10-14T05:45:00Z,30.4178,-88.4054,0.0,25.9,2 
NERRS,ioos:station:NOAA.NERRS:gndbhwq:1,2016-10-14T06:45:00Z,30.4178,-88.4054,0.0,25.8,2 
NERRS,ioos:station:NOAA.NERRS:gndbhwq:1,2016-10-14T07:45:00Z,30.4178,-88.4054,0.0,25.7,2 
NERRS,ioos:station:NOAA.NERRS:gndbhwq:1,2016-10-14T08:45:00Z,30.4178,-88.4054,0.0,25.6,2 
NERRS,ioos:station:NOAA.NERRS:gndbhwq:1,2016-10-14T09:45:00Z,30.4178,-88.4054,0.0,25.5,2 
NERRS,ioos:station:NOAA.NERRS:gndbhwq:1,2016-10-14T10:45:00Z,30.4178,-88.4054,0.0,25.4,2 
NERRS,ioos:station:NOAA.NERRS:gndbhwq:1,2016-10-14T11:45:00Z,30.4178,-88.4054,0.0,25.0,2 
NERRS,ioos:station:NOAA.NERRS:gndbhwq:1,2016-10-14T12:45:00Z,30.4178,-88.4054,0.0,24.5,2 
NERRS,ioos:station:NOAA.NERRS:gndbhwq:1,2016-10-14T13:45:00Z,30.4178,-88.4054,0.0,24.7,2 
NERRS,ioos:station:NOAA.NERRS:gndbhwq:1,2016-10-14T14:45:00Z,30.4178,-88.4054,0.0,24.8,2 
NERRS,ioos:station:NOAA.NERRS:gndbhwq:1,2016-10-14T15:45:00Z,30.4178,-88.4054,0.0,25.0,2 
NERRS,ioos:station:NOAA.NERRS:gndbhwq:1,2016-10-14T16:45:00Z,30.4178,-88.4054,0.0,25.3,2 
NERRS,ioos:station:NOAA.NERRS:gndbhwq:1,2016-10-14T17:45:00Z,30.4178,-88.4054,0.0,25.5,2 
NERRS,ioos:station:NOAA.NERRS:gndbhwq:1,2016-10-14T18:45:00Z,30.4178,-88.4054,0.0,25.3,2 
NERRS,ioos:station:NOAA.NERRS:gndbhwq:1,2016-10-14T19:45:00Z,30.4178,-88.4054,0.0,25.5,2 
NERRS,ioos:station:NOAA.NERRS:gndbhwq:1,2016-10-14T20:45:00Z,30.4178,-88.4054,0.0,25.6,2 
NERRS,ioos:station:NOAA.NERRS:gndbhwq:1,2016-10-14T21:45:00Z,30.4178,-88.4054,0.0,25.5,2 
NERRS,ioos:station:NOAA.NERRS:gndbhwq:1,2016-10-14T22:45:00Z,30.4178,-88.4054,0.0,25.6,2 
NERRS,ioos:station:NOAA.NERRS:gndbhwq:1,2016-10-14T23:45:00Z,30.4178,-88.4054,0.0,25.6,2 
NERRS,ioos:station:NOAA.NERRS:gndbhwq:1,2016-10-15T00:45:00Z,30.4178,-88.4054,0.0,25.6,2 
NERRS,ioos:station:NOAA.NERRS:gndbhwq:1,2016-10-15T01:45:00Z,30.4178,-88.4054,0.0,25.7,2 
NERRS,ioos:station:NOAA.NERRS:gndbhwq:1,2016-10-15T02:45:00Z,30.4178,-88.4054,0.0,25.8,2 
NERRS,ioos:station:NOAA.NERRS:gndbhwq:1,2016-10-15T03:45:00Z,30.4178,-88.4054,0.0,25.8,2 
NERRS,ioos:station:NOAA.NERRS:gndbhwq:1,2016-10-15T04:45:00Z,30.4178,-88.4054,0.0,25.8,2 
NERRS,ioos:station:NOAA.NERRS:gndbhwq:1,2016-10-15T05:45:00Z,30.4178,-88.4054,0.0,25.7,2 
NERRS,ioos:station:NOAA.NERRS:gndbhwq:1,2016-10-15T06:45:00Z,30.4178,-88.4054,0.0,25.7,2 
NERRS,ioos:station:NOAA.NERRS:gndbhwq:1,2016-10-15T07:45:00Z,30.4178,-88.4054,0.0,25.6,2 
NERRS,ioos:station:NOAA.NERRS:gndbhwq:1,2016-10-15T08:45:00Z,30.4178,-88.4054,0.0,25.6,2 
NERRS,ioos:station:NOAA.NERRS:gndbhwq:1,2016-10-15T09:45:00Z,30.4178,-88.4054,0.0,25.6,2 
NERRS,ioos:station:NOAA.NERRS:gndbhwq:1,2016-10-15T10:45:00Z,30.4178,-88.4054,0.0,25.6,2 
NERRS,ioos:station:NOAA.NERRS:gndbhwq:1,2016-10-15T11:45:00Z,30.4178,-88.4054,0.0,25.6,2 
NERRS,ioos:station:NOAA.NERRS:gndbhwq:1,2016-10-15T12:45:00Z,30.4178,-88.4054,0.0,25.1,2 
NERRS,ioos:station:NOAA.NERRS:gndbhwq:1,2016-10-15T13:45:00Z,30.4178,-88.4054,0.0,25.1,2 
NERRS,ioos:station:NOAA.NERRS:gndbhwq:1,2016-10-15T14:45:00Z,30.4178,-88.4054,0.0,25.2,2 
NERRS,ioos:station:NOAA.NERRS:gndbhwq:1,2016-10-15T15:45:00Z,30.4178,-88.4054,0.0,25.4,2 
NERRS,ioos:station:NOAA.NERRS:gndbhwq:1,2016-10-15T16:45:00Z,30.4178,-88.4054,0.0,25.7,2 
NERRS,ioos:station:NOAA.NERRS:gndbhwq:1,2016-10-15T17:45:00Z,30.4178,-88.4054,0.0,25.8,2 
NERRS,ioos:station:NOAA.NERRS:gndbhwq:1,2016-10-15T18:45:00Z,30.4178,-88.4054,0.0,26.2,2 
NERRS,ioos:station:NOAA.NERRS:gndbhwq:1,2016-10-15T19:45:00Z,30.4178,-88.4054,0.0,26.3,2 
NERRS,ioos:station:NOAA.NERRS:gndbhwq:1,2016-10-15T20:45:00Z,30.4178,-88.4054,0.0,26.4,2 
NERRS,ioos:station:NOAA.NERRS:gndbhwq:1,2016-10-15T21:45:00Z,30.4178,-88.4054,0.0,26.7,2 
NERRS,ioos:station:NOAA.NERRS:gndbhwq:1,2016-10-15T22:45:00Z,30.4178,-88.4054,0.0,26.6,2 
NERRS,ioos:station:NOAA.NERRS:gndbhwq:1,2016-10-15T23:45:00Z,30.4178,-88.4054,0.0,26.5,2 
NERRS,ioos:station:NOAA.NERRS:gndbhwq:1,2016-10-16T00:45:00Z,30.4178,-88.4054,0.0,26.4,2 
NERRS,ioos:station:NOAA.NERRS:gndbhwq:1,2016-10-16T01:45:00Z,30.4178,-88.4054,0.0,26.3,2 
NERRS,ioos:station:NOAA.NERRS:gndbhwq:1,2016-10-16T02:45:00Z,30.4178,-88.4054,0.0,26.2,2 
NERRS,ioos:station:NOAA.NERRS:gndbhwq:1,2016-10-16T03:45:00Z,30.4178,-88.4054,0.0,26.0,2 
NERRS,ioos:station:NOAA.NERRS:gndbhwq:1,2016-10-16T04:45:00Z,30.4178,-88.4054,0.0,26.0,2 
NERRS,ioos:station:NOAA.NERRS:gndbhwq:1,2016-10-16T05:45:00Z,30.4178,-88.4054,0.0,25.8,2 
NERRS,ioos:station:NOAA.NERRS:gndbhwq:1,2016-10-16T06:45:00Z,30.4178,-88.4054,0.0,25.7,2 
NERRS,ioos:station:NOAA.NERRS:gndbhwq:1,2016-10-16T07:45:00Z,30.4178,-88.4054,0.0,25.7,2 
NERRS,ioos:station:NOAA.NERRS:gndbhwq:1,2016-10-16T08:45:00Z,30.4178,-88.4054,0.0,25.6,2 
NERRS,ioos:station:NOAA.NERRS:gndbhwq:1,2016-10-16T09:45:00Z,30.4178,-88.4054,0.0,25.5,2 
NERRS,ioos:station:NOAA.NERRS:gndbhwq:1,2016-10-16T10:45:00Z,30.4178,-88.4054,0.0,25.6,2 
NERRS,ioos:station:NOAA.NERRS:gndbhwq:1,2016-10-16T11:45:00Z,30.4178,-88.4054,0.0,25.6,2 
NERRS,ioos:station:NOAA.NERRS:gndbhwq:1,2016-10-16T12:45:00Z,30.4178,-88.4054,0.0,25.7,2 
NERRS,ioos:station:NOAA.NERRS:gndbhwq:1,2016-10-16T13:45:00Z,30.4178,-88.4054,0.0,25.5,2 
NERRS,ioos:station:NOAA.NERRS:gndbhwq:1,2016-10-16T14:45:00Z,30.4178,-88.4054,0.0,25.6,2 
NERRS,ioos:station:NOAA.NERRS:gndbhwq:1,2016-10-16T15:45:00Z,30.4178,-88.4054,0.0,25.8,2 
NERRS,ioos:station:NOAA.NERRS:gndbhwq:1,2016-10-16T16:45:00Z,30.4178,-88.4054,0.0,26.2,2 
NERRS,ioos:station:NOAA.NERRS:gndbhwq:1,2016-10-16T17:45:00Z,30.4178,-88.4054,0.0,26.3,2 
NERRS,ioos:station:NOAA.NERRS:gndbhwq:1,2016-10-16T18:45:00Z,30.4178,-88.4054,0.0,26.4,2 
NERRS,ioos:station:NOAA.NERRS:gndbhwq:1,2016-10-16T19:45:00Z,30.4178,-88.4054,0.0,26.6,2 
NERRS,ioos:station:NOAA.NERRS:gndbhwq:1,2016-10-16T20:45:00Z,30.4178,-88.4054,0.0,26.2,2 
NERRS,ioos:station:NOAA.NERRS:gndbhwq:1,2016-10-16T21:45:00Z,30.4178,-88.4054,0.0,26.4,2 
NERRS,ioos:station:NOAA.NERRS:gndbhwq:1,2016-10-16T22:45:00Z,30.4178,-88.4054,0.0,26.2,2 
NERRS,ioos:station:NOAA.NERRS:gndbhwq:1,2016-10-16T23:45:00Z,30.4178,-88.4054,0.0,26.5,2 
NERRS,ioos:station:NOAA.NERRS:gndbhwq:1,2016-10-17T00:45:00Z,30.4178,-88.4054,0.0,26.5,2 
NERRS,ioos:station:NOAA.NERRS:gndbhwq:1,2016-10-17T01:45:00Z,30.4178,-88.4054,0.0,26.5,2 
NERRS,ioos:station:NOAA.NERRS:gndbhwq:1,2016-10-17T02:45:00Z,30.4178,-88.4054,0.0,26.3,2 
NERRS,ioos:station:NOAA.NERRS:gndbhwq:1,2016-10-17T03:45:00Z,30.4178,-88.4054,0.0,26.2,2 
NERRS,ioos:station:NOAA.NERRS:gndbhwq:1,2016-10-17T04:45:00Z,30.4178,-88.4054,0.0,26.0,2 
NERRS,ioos:station:NOAA.NERRS:gndbhwq:1,2016-10-17T05:45:00Z,30.4178,-88.4054,0.0,26.0,2 
NERRS,ioos:station:NOAA.NERRS:gndbhwq:1,2016-10-17T06:45:00Z,30.4178,-88.4054,0.0,26.0,2 
NERRS,ioos:station:NOAA.NERRS:gndbhwq:1,2016-10-17T07:45:00Z,30.4178,-88.4054,0.0,25.9,2 
NERRS,ioos:station:NOAA.NERRS:gndbhwq:1,2016-10-17T08:45:00Z,30.4178,-88.4054,0.0,25.8,2 
NERRS,ioos:station:NOAA.NERRS:gndbhwq:1,2016-10-17T09:45:00Z,30.4178,-88.4054,0.0,25.7,2 
NERRS,ioos:station:NOAA.NERRS:gndbhwq:1,2016-10-17T10:45:00Z,30.4178,-88.4054,0.0,25.7,2 
NERRS,ioos:station:NOAA.NERRS:gndbhwq:1,2016-10-17T11:45:00Z,30.4178,-88.4054,0.0,25.5,2 
NERRS,ioos:station:NOAA.NERRS:gndbhwq:1,2016-10-17T12:45:00Z,30.4178,-88.4054,0.0,25.4,2 
NERRS,ioos:station:NOAA.NERRS:gndbhwq:1,2016-10-22T01:45:00Z,30.4178,-88.4054,0.0,24.9,2 
NERRS,ioos:station:NOAA.NERRS:gndbhwq:1,2016-10-22T02:45:00Z,30.4178,-88.4054,0.0,24.8,2 
NERRS,ioos:station:NOAA.NERRS:gndbhwq:1,2016-10-22T03:45:00Z,30.4178,-88.4054,0.0,24.6,2 
NERRS,ioos:station:NOAA.NERRS:gndbhwq:1,2016-10-22T04:45:00Z,30.4178,-88.4054,0.0,24.4,2 
NERRS,ioos:station:NOAA.NERRS:gndbhwq:1,2016-10-22T05:45:00Z,30.4178,-88.4054,0.0,24.3,2 
NERRS,ioos:station:NOAA.NERRS:gndbhwq:1,2016-10-22T06:45:00Z,30.4178,-88.4054,0.0,24.1,2 
NERRS,ioos:station:NOAA.NERRS:gndbhwq:1,2016-10-22T07:45:00Z,30.4178,-88.4054,0.0,24.0,2 
NERRS,ioos:station:NOAA.NERRS:gndbhwq:1,2016-10-22T08:45:00Z,30.4178,-88.4054,0.0,23.8,2 
NERRS,ioos:station:NOAA.NERRS:gndbhwq:1,2016-10-22T09:45:00Z,30.4178,-88.4054,0.0,23.7,2 
NERRS,ioos:station:NOAA.NERRS:gndbhwq:1,2016-10-22T10:45:00Z,30.4178,-88.4054,0.0,23.7,2 
NERRS,ioos:station:NOAA.NERRS:gndbhwq:1,2016-10-22T11:45:00Z,30.4178,-88.4054,0.0,23.6,2 
NERRS,ioos:station:NOAA.NERRS:gndbhwq:1,2016-10-22T12:45:00Z,30.4178,-88.4054,0.0,23.6,2 
NERRS,ioos:station:NOAA.NERRS:gndbhwq:1,2016-10-22T13:45:00Z,30.4178,-88.4054,0.0,23.6,2 
NERRS,ioos:station:NOAA.NERRS:gndbhwq:1,2016-10-22T14:45:00Z,30.4178,-88.4054,0.0,23.5,2 
NERRS,ioos:station:NOAA.NERRS:gndbhwq:1,2016-10-22T15:45:00Z,30.4178,-88.4054,0.0,23.6,2 
NERRS,ioos:station:NOAA.NERRS:gndbhwq:1,2016-10-22T16:45:00Z,30.4178,-88.4054,0.0,23.6,2 
NERRS,ioos:station:NOAA.NERRS:gndbhwq:1,2016-10-22T17:45:00Z,30.4178,-88.4054,0.0,23.7,2 
NERRS,ioos:station:NOAA.NERRS:gndbhwq:1,2016-10-22T18:45:00Z,30.4178,-88.4054,0.0,23.6,2 
NERRS,ioos:station:NOAA.NERRS:gndbhwq:1,2016-10-22T19:45:00Z,30.4178,-88.4054,0.0,23.9,2 
NERRS,ioos:station:NOAA.NERRS:gndbhwq:1,2016-10-22T20:45:00Z,30.4178,-88.4054,0.0,23.6,2 
NERRS,ioos:station:NOAA.NERRS:gndbhwq:1,2016-10-22T21:45:00Z,30.4178,-88.4054,0.0,23.6,2 
NERRS,ioos:station:NOAA.NERRS:gndbhwq:1,2016-10-22T22:45:00Z,30.4178,-88.4054,0.0,23.4,2 
NERRS,ioos:station:NOAA.NERRS:gndbhwq:1,2016-10-22T23:45:00Z,30.4178,-88.4054,0.0,23.5,2 
NERRS,ioos:station:NOAA.NERRS:gndbhwq:1,2016-10-23T00:45:00Z,30.4178,-88.4054,0.0,23.5,2 
NERRS,ioos:station:NOAA.NERRS:gndbhwq:1,2016-10-23T01:45:00Z,30.4178,-88.4054,0.0,23.5,2 
NERRS,ioos:station:NOAA.NERRS:gndbhwq:1,2016-10-23T02:45:00Z,30.4178,-88.4054,0.0,23.4,2 
NERRS,ioos:station:NOAA.NERRS:gndbhwq:1,2016-10-23T03:45:00Z,30.4178,-88.4054,0.0,23.5,2 
NERRS,ioos:station:NOAA.NERRS:gndbhwq:1,2016-10-23T04:45:00Z,30.4178,-88.4054,0.0,23.3,2 
NERRS,ioos:station:NOAA.NERRS:gndbhwq:1,2016-10-23T05:45:00Z,30.4178,-88.4054,0.0,22.7,2 